This demonstration page uses our WeatherBlox Daily Observations layout. Learn more.

Left ArrowRight Arrow

53.62937, 11.41316

Hourly Observations for November 8, 2019

Temp ( °F °C ) Dew Point ( °F °C ) Humidity (%) Winds ( mph kmh ) Pressure ( in mb ) Visibility ( mi km ) Precip ( " mm )
5:50 am 05:50 Mostly Clear 39 4 39 4 100 100 SSW 3 6 29.68 1005 5 8 N/A
6:20 am 06:20 Mostly Clear 39 4 37 3 93 93 S 3 6 29.68 1005 5 8 N/A
6:50 am 06:50 Mostly Clear 39 4 37 3 93 93 VRB 2 4 29.71 1006 7 11 N/A
7:20 am 07:20 Mostly Clear 39 4 37 3 93 93 E 3 6 29.71 1006 7 11 N/A
7:50 am 07:50 Mostly Sunny 37 3 32 0 81 81 VRB 2 4 29.71 1006 7 11 N/A
8:20 am 08:20 Mostly Sunny 39 4 37 3 93 93 VRB 2 4 29.74 1007 7 11 N/A
8:50 am 08:50 Mostly Sunny 39 4 39 4 100 100 VRB 1 2 29.74 1007 7 11 N/A
9:20 am 09:20 Mostly Sunny 41 5 39 4 93 93 SSE 3 6 29.74 1007 7 11 N/A
9:50 am 09:50 Mostly Sunny 43 6 39 4 87 87 S 3 6 29.77 1008 7 11 N/A
10:20 am 10:20 Mostly Sunny 45 7 41 5 87 87 S 6 9 29.77 1008 7 11 N/A
10:50 am 10:50 Mostly Sunny 45 7 41 5 87 87 S 6 9 29.77 1008 7 11 N/A
11:20 am 11:20 Mostly Sunny 46 8 41 5 82 82 S 6 9 29.77 1008 7 11 N/A
11:50 am 11:50 Mostly Sunny 48 9 41 5 76 76 VRB 2 4 29.77 1008 7 11 N/A
12:20 pm 12:20 Mostly Sunny 46 8 41 5 82 82 SSW 3 6 29.77 1008 7 11 N/A
12:50 pm 12:50 Mostly Sunny 48 9 41 5 76 76 VRB 2 4 29.77 1008 7 11 N/A
1:20 pm 13:20 Mostly Sunny 48 9 41 5 76 76 VRB 2 4 29.74 1007 7 11 N/A
1:50 pm 13:50 Mostly Sunny 48 9 41 5 76 76 VRB 1 2 29.74 1007 7 11 N/A
2:20 pm 14:20 Mostly Sunny 48 9 43 6 82 82 VRB 1 2 29.74 1007 7 11 N/A
2:50 pm 14:50 Mostly Sunny 48 9 43 6 82 82 E 2 4 29.74 1007 7 11 N/A
3:20 pm 15:20 Mostly Sunny 46 8 41 5 82 82 E 2 4 29.74 1007 7 11 N/A
3:50 pm 15:50 Mostly Sunny 46 8 43 6 87 87 E 3 6 29.77 1008 7 11 N/A
4:20 pm 16:20 Mostly Sunny 45 7 41 5 87 87 ESE 3 6 29.77 1008 7 11 N/A
4:50 pm 16:50 Mostly Clear 45 7 43 6 93 93 SE 3 6 29.77 1008 7 11 N/A
5:20 pm 17:20 Mostly Clear 45 7 41 5 87 87 VRB 2 4 29.77 1008 7 11 N/A
5:50 pm 17:50 Mostly Clear 43 6 41 5 93 93 VRB 1 2 29.77 1008 7 11 N/A
6:20 pm 18:20 Mostly Clear 43 6 41 5 93 93 E 2 4 29.77 1008 7 11 N/A
6:50 pm 18:50 Mostly Clear 41 5 41 5 100 100 VRB 1 2 29.77 1008 6 9 N/A
7:20 pm 19:20 Mostly Clear 41 5 41 5 100 100 VRB 1 2 29.77 1008 5 8 N/A
7:50 pm 19:50 Mostly Clear 41 5 41 5 100 100 ESE 2 4 29.77 1008 5 8 N/A

Powered by AerisWeather